Regional Weather Roundup
Issued by NWS

Home | Current Version | Previous Version | Text Only | Print | Product List | Glossary On
Versions: 1 2 3 4 5 6 7 8 9 10 11 12 13 14 15 16 17 18 19 20 21 22 23 24 25 26 27 28 29 30 31 32 33 34 35 36 37 38 39 40 41 42 43 44 45 46 47 48 49 50
000
ASUS45 KPSR 272110
RWRAZ

ARIZONA HOURLY REGIONAL WEATHER ROUNDUP
NATIONAL WEATHER SERVICE PHOENIX AZ
200 PM MST THU JUL 27 2017

NOTE: FAIR INDICATES FEW OR NO CLOUDS BELOW 12,000 FEET WITH NO
SIGNIFICANT WEATHER AND/OR OBSTRUCTIONS TO VISIBILITY.

AZZ001>003-036-272200-
NORTHWEST ARIZONA

CITY           SKY/WX    TMP DP  RH WIND       PRES   REMARKS
BULLHEAD CITY  MOSUNNY  109  48  13 SW7G14    29.79F HX 106
KINGMAN        FAIR      99  53  21 MISG      30.03F
$$

AZZ004>008-015-016-018-272200-
NORTH CENTRAL ARIZONA

CITY           SKY/WX    TMP DP  RH WIND       PRES   REMARKS
GRAND CANYON   FAIR      84  46  26 SW8       30.28F
WILLIAMS       LGT RAIN  68  61  77 SE7       30.30F
PRESCOTT       PTSUNNY   81  62  52 S12       30.15F
FLAGSTAFF      FAIR      66  59  78 E3        30.34F
PAYSON         FAIR      86  57  37 NE9       30.19R
PAGE           FAIR      96  52  22 N9        30.05F
$$

AZZ009>014-017-272200-
NORTHEAST ARIZONA

CITY           SKY/WX    TMP DP  RH WIND       PRES   REMARKS
WINSLOW        PTSUNNY   92  50  23 SW9       30.11F
SAINT JOHNS    FAIR      88  52  29 NE8       30.15F
WINDOW ROCK    FAIR      82  49  31 SE7       30.28F
SHOW LOW       FAIR      72  52  49 S16       30.25F
$$

AZZ540-542>544-546-548-272200-
GREATER PHOENIX AREA

CITY           SKY/WX    TMP DP  RH WIND       PRES   REMARKS
PHOENIX        PTSUNNY  106  55  18 NW8G17    29.80F HX 105
BUCKEYE          N/A    108  54  16 SW12      29.82F HX 106
GLENDALE       MOSUNNY  108  55  18 S10G20    29.81F HX 106
LUKE AFB       FAIR     108  56  18 SW10      29.79F HX 107
DEER VALLEY    FAIR     107  56  18 W13G18    29.82F HX 106
SCOTTSDALE     FAIR     105  54  18 VRB5      29.84F HX 103
MESA-FALCON    MOSUNNY  104  61  24 W7G17     29.84F HX 105
MESA-GATEWAY   MOSUNNY  102  55  21 N5        29.85F HX 101
CHANDLER       SUNNY    106  54  17 W12       29.82F HX 104
$$

AZZ539-553-272200-
SOUTHWEST MARICOPA COUNTY AND PINAL COUNTY

CITY           SKY/WX    TMP DP  RH WIND       PRES   REMARKS
CASA GRANDE    FAIR     104  57  21 W13       29.85F HX 103
GILA BEND      MOSUNNY  105  50  16 CALM      29.80F HX 102
$$

AZZ503-504-507>509-272200-
SOUTHEAST ARIZONA

CITY           SKY/WX    TMP DP  RH WIND       PRES   REMARKS
TUCSON         FAIR      98  56  24 NW9       29.96F
DAVIS-MONTHAN  PTSUNNY  101  58  24 NW5       29.95F HX 100
RYAN FIELD     SUNNY     99  57  25 CALM      29.95F
NOGALES        FAIR      87  60  40 W6        30.07F
SIERRA VISTA   FAIR      88  58  36 W7        30.14F
DOUGLAS        PTSUNNY   85  61  44 NE22      30.06F
SAFFORD        FAIR      95  59  30 CALM      29.96F
$$

AZZ532-272200-
SOUTHWEST ARIZONA

CITY           SKY/WX    TMP DP  RH WIND       PRES   REMARKS
YUMA           FAIR     107  53  16 VRB6      29.78F HX 105
$$

CAZ041-043-047-048-061-525>527-560>570-272200-
SOUTHERN CALIFORNIA

CITY           SKY/WX    TMP DP  RH WIND       PRES   REMARKS
DOWNTOWN L.A.  FAIR      82  64  54 VRB5      29.90F
L.A. AIRPORT   PTSUNNY   76  64  66 W15       29.92F
SAN DIEGO      FAIR      78  65  63 W14       29.93F
BURBANK        FAIR      91  62  37 VRB6      29.90F
ONTARIO        PTSUNNY   96  58  27 W13       29.90F
RIVERSIDE      FAIR      96  61  31 W9        29.89F
PALM SPRINGS   FAIR     111  49  12 VRB6      29.79F HX 107
EL CENTRO NAS  FAIR     108  50  14 VRB5      29.77F HX 105
IMPERIAL       FAIR     108  59  20 VRB3      29.75F HX 109
BLYTHE         CLOUDY   109  54  16 SE13      29.78F HX 107
NEEDLES        FAIR     112  49  12 E12       29.80F HX 108
$$

NVZ020-UTZ003-272200-
SOUTHERN NEVADA-UTAH

CITY           SKY/WX    TMP DP  RH WIND       PRES   REMARKS
LAS VEGAS      FAIR     104  53  18 VRB5      29.91F HX 102
SALT LAKE CITY FAIR      87  55  33 W8        30.12F
$$

NMZ009-TXZ055-272200-
NEW MEXICO-WEST TEXAS

CITY           SKY/WX    TMP DP  RH WIND       PRES   REMARKS
ALBUQUERQUE    MOSUNNY   84  55  36 SW9       30.17F
EL PASO        PTSUNNY   78  66  66 NW14      30.08F THUNDER
$$


........................KEY........................
SKY/WX - SKY CONDITION/WEATHER
TMP    - TEMPERATURE IN FAHRENHEIT
DP     - DEW POINT IN FAHRENHEIT
RH     - RELATIVE HUMIDITY IN PERCENT
WIND   - DIRECTION AND SPEED IN MILES PER HOUR (MPH)
VRB    - VARIABLE WIND DIRECTION
PRES   - MEAN SEA LEVEL PRESSURE IN INCHES OF MERCURY
         F - FALLING PRESSURE   R - RISING PRESSURE
         S - STEADY PRESSURE
VSB    - VISIBILITY IN MILES
HX     - HEAT INDEX IN FAHRENHEIT
WCI    - WIND CHILL INDEX IN FAHRENHEIT
TC     - TEMPERATURE IN CELSIUS WHICH IS ALSO KNOWN AS
         TEMPERATURE IN CENTIGRADE
AFB    - AIR FORCE BASE
         LUKE AFB IS LUKE AIR FORCE BASE
         DAVIS-MONTHAN IS DAVIS-MONTHAN AIR FORCE BASE
NAS    - NAVAL AIR STATION
         EL CENTRO NAS IS EL CENTRO NAVAL AIR STATION
N/A    - NOT AVAILABLE




USA.gov is the U.S. government's official web portal to all federal, state and local government web resources and services.